Weather History for KSAD - December, 2012

Change the Weather History Date:

Friday, December 28, 2012

  Actual Average Record
Temperature  
Mean Temperature 38 °F -  
Max Temperature 48 °F 56 °F 78 °F (1980)
Min Temperature 28 °F 29 °F 13 °F (1954)
Degree Days  
Heating Degree Days 27    
Moisture  
Dew Point 28 °F    
Average Humidity 75    
Maximum Humidity 92    
Minimum Humidity 39    
Precipitation  
Precipitation 0.00 in - - ()
Sea Level Pressure  
Sea Level Pressure 30.11 in    
Wind  
Wind Speed 4 mph (SE)    
Max Wind Speed 8 mph    
Max Gust Speed -    
Visibility 10 miles    
Events      
Averages and records for this station are not official NWS values.
T = Trace of Precipitation, MM = Missing Value Source: NWS Daily Summary

Daily Weather History Graph

Daily Weather History Graph

Search for Another Location

Airport or City:

Trip Planner

Search our weather history database for the weather conditions in past years. The results will help you decide how hot, cold, wet, or windy it might be!

Date:

Astronomy

Dec. 28, 2012 Rise Set
Actual Time 7:20 AM MST 5:20 PM MST
Civil Twilight 6:52 AM MST 5:48 PM MST
Nautical Twilight 6:22 AM MST 6:18 PM MST
Astronomical Twilight 5:52 AM MST 6:48 PM MST
Moon 5:57 PM MST (12/28) 7:19 AM MST (12/28)
Length of Visible Light 10h 55m
Length of Day
10h 00m
Full, 100% of the Moon is Illuminated
Dec 28
Full
Jan 4
Last Quarter
Jan 11
New
Jan 18
First Quarter
Jan 26
Full

Hourly Weather History & Observations

Time (MST) Temp. Windchill Dew Point Humidity Pressure Visibility Wind Dir Wind Speed Gust Speed Precip Events Conditions
12:51 AM 32.0 °F 27.5 °F 30.0 °F 92% 30.01 in 10.0 mi SSE 4.6 mph - N/A   Mostly Cloudy
1:51 AM 32.0 °F 26.4 °F 30.0 °F 92% 30.02 in 10.0 mi SE 5.8 mph - N/A   Overcast
2:51 AM 32.0 °F 26.4 °F 30.0 °F 92% 30.04 in 10.0 mi ESE 5.8 mph - N/A   Scattered Clouds
3:51 AM 30.9 °F 27.5 °F 28.9 °F 92% 30.04 in 10.0 mi ESE 3.5 mph - N/A   Partly Cloudy
4:51 AM 28.9 °F - 27.0 °F 92% 30.07 in 10.0 mi Calm Calm - N/A   Clear
5:51 AM 28.0 °F 22.8 °F 26.1 °F 92% 30.09 in 10.0 mi ESE 4.6 mph - N/A   Clear
6:51 AM 28.0 °F 24.2 °F 26.1 °F 92% 30.11 in 10.0 mi East 3.5 mph - N/A   Partly Cloudy
7:51 AM 28.0 °F 24.2 °F 26.1 °F 92% 30.13 in 10.0 mi SE 3.5 mph - N/A   Mostly Cloudy
8:51 AM 30.0 °F 26.5 °F 28.0 °F 92% 30.15 in 10.0 mi ESE 3.5 mph - N/A   Mostly Cloudy
9:51 AM 34.0 °F - 30.9 °F 89% 30.17 in 10.0 mi Calm Calm - N/A   Clear
10:51 AM 39.9 °F - 33.1 °F 77% 30.17 in 10.0 mi Calm Calm - N/A   Clear
11:51 AM 42.1 °F - 33.1 °F 70% 30.13 in 10.0 mi Calm Calm - N/A   Clear
12:51 PM 46.0 °F 43.9 °F 33.1 °F 61% 30.09 in 10.0 mi West 4.6 mph - N/A   Clear
1:51 PM 48.0 °F - 28.0 °F 46% 30.06 in 10.0 mi West 8.1 mph - N/A   Clear
2:51 PM 48.9 °F - 26.1 °F 41% 30.06 in 10.0 mi Variable 3.5 mph - N/A   Clear
3:51 PM 48.9 °F - 25.0 °F 39% 30.06 in 10.0 mi NW 4.6 mph - N/A   Clear
4:51 PM 48.0 °F - 24.1 °F 39% 30.09 in 10.0 mi WNW 5.8 mph - N/A   Clear
5:51 PM 45.0 °F - 26.1 °F 48% 30.11 in 10.0 mi Calm Calm - N/A   Clear
6:51 PM 37.9 °F - 30.9 °F 76% 30.14 in 10.0 mi Calm Calm - N/A   Clear
7:51 PM 37.0 °F - 30.0 °F 76% 30.16 in 10.0 mi Calm Calm - N/A   Clear
8:51 PM 35.1 °F 30.1 °F 28.0 °F 76% 30.15 in 10.0 mi ESE 5.8 mph - N/A   Clear
9:51 PM 34.0 °F 31.0 °F 26.1 °F 73% 30.17 in 10.0 mi South 3.5 mph - N/A   Clear
10:51 PM 32.0 °F - 27.0 °F 82% 30.17 in 10.0 mi Calm Calm - N/A   Clear
11:51 PM 32.0 °F 27.5 °F 27.0 °F 82% 30.17 in 10.0 mi SE 4.6 mph - N/A   Clear